Weather History for Luverne, MN

Change the Weather History Date:

Thursday, February 7, 2013

  Actual Average (KFSD) Record (KFSD)
Temperature  
Mean Temperature 28 °F 19 °F  
Max Temperature 33 °F 29 °F 65 °F (1987)
Min Temperature 23 °F 9 °F -30 °F (1895)
Degree Days  
Heating Degree Days 37 46  
Month to date heating degree days 326  
Since 1 July heating degree days 4958  
Cooling Degree Days 0 0  
Month to date cooling degree days 0  
Year to date cooling degree days 0  
Moisture  
Dew Point 24 °F    
Average Humidity 86    
Maximum Humidity 93    
Minimum Humidity 80    
Precipitation  
Precipitation 0.00 in 0.02 in 0.31 in (2010)
Month to date precipitation 0.13  
Year to date precipitation 0.69  
Snow  
Snow 0.00 in 0.20 in 3.70 in (2010)
Month to date snowfall 1.7  
Since 1 July snowfall 26.3  
Snow Depth -    
Sea Level Pressure  
Sea Level Pressure 30.11 in    
Wind  
Wind Speed 10 mph (North)    
Max Wind Speed 14 mph    
Max Gust Speed 18 mph    
Visibility 5 miles    
Events      
T = Trace of Precipitation, MM = Missing Value Source: NWS Daily Summary

Daily Weather History Graph

Daily Weather History Graph

Search for Another Location

Airport:

Trip Planner

Search our weather history database for the weather conditions in past years. The results will help you decide how hot, cold, wet, or windy it might be!

Date:

Astronomy

Feb. 07, 2013 Rise Set
Actual Time 7:33 AM CST 5:44 PM CST
Civil Twilight 7:03 AM CST 6:14 PM CST
Nautical Twilight 6:29 AM CST 6:48 PM CST
Astronomical Twilight 5:56 AM CST 7:22 PM CST
Moon 5:17 AM CST (2/7) 3:07 PM CST (2/7)
Length of Visible Light 11h 10m
Length of Day
10h 10m
Waning Crescent, 9% of the Moon is Illuminated
Feb 7
Waning Crescent
Feb 10
New
Feb 17
First Quarter
Feb 25
Full
Mar 4
Last Quarter

Hourly Weather History & Observations

Time (CST) Temp. Windchill Dew Point Humidity Pressure Visibility Wind Dir Wind Speed Gust Speed Precip Events Conditions
12:17 AM 33.8 °F 26.4 °F 32.0 °F 93% 29.92 in 10.0 mi North 9.2 mph - N/A   Scattered Clouds
12:36 AM 32.0 °F 24.8 °F 30.2 °F 93% 29.93 in 10.0 mi North 8.1 mph - N/A   Clear
12:56 AM 32.0 °F 24.2 °F 30.2 °F 93% 29.93 in 10.0 mi North 9.2 mph - N/A   Scattered Clouds
1:17 AM 32.0 °F 23.6 °F 30.2 °F 93% 29.94 in 10.0 mi North 10.4 mph - N/A   Scattered Clouds
1:36 AM 32.0 °F 24.2 °F 30.2 °F 93% 29.94 in 10.0 mi NNE 9.2 mph - N/A   Mostly Cloudy
1:56 AM 32.0 °F 24.2 °F 28.4 °F 87% 29.96 in 7.0 mi North 9.2 mph - N/A   Mostly Cloudy
2:16 AM 30.2 °F 21.3 °F 28.4 °F 93% 29.97 in 4.0 mi North 10.4 mph - N/A   Overcast
2:36 AM 30.2 °F 20.8 °F 28.4 °F 93% 29.97 in 2.5 mi North 11.5 mph 17.3 mph N/A   Overcast
2:57 AM 30.2 °F 21.3 °F 28.4 °F 93% 29.98 in 2.0 mi North 10.4 mph 17.3 mph N/A   Overcast
3:16 AM 30.2 °F 21.9 °F 28.4 °F 93% 29.98 in 2.5 mi North 9.2 mph 16.1 mph N/A   Overcast
3:36 AM 30.2 °F 20.8 °F 28.4 °F 93% 29.98 in 3.0 mi NNE 11.5 mph 18.4 mph N/A   Overcast
3:56 AM 30.2 °F 19.8 °F 26.6 °F 86% 29.98 in 3.0 mi North 13.8 mph 18.4 mph N/A   Overcast
4:16 AM 28.4 °F 18.0 °F 26.6 °F 93% 29.99 in 3.0 mi North 12.7 mph 18.4 mph N/A   Overcast
4:36 AM 28.4 °F 19.1 °F 26.6 °F 93% 30.00 in 3.0 mi North 10.4 mph - N/A   Overcast
4:56 AM 28.4 °F 21.2 °F 24.8 °F 86% 30.01 in 2.5 mi North 6.9 mph - N/A   Overcast
5:16 AM 26.6 °F 16.8 °F 23.0 °F 86% 30.02 in 3.0 mi North 10.4 mph - N/A   Overcast
5:36 AM 26.6 °F 18.2 °F 23.0 °F 86% 30.01 in 3.0 mi NNE 8.1 mph - N/A   Overcast
5:56 AM 26.6 °F 16.8 °F 23.0 °F 86% 30.01 in 2.5 mi North 10.4 mph - N/A   Overcast
6:16 AM 26.6 °F 15.7 °F 23.0 °F 86% 30.02 in 2.5 mi North 12.7 mph - N/A   Overcast
6:36 AM 26.6 °F 17.5 °F 23.0 °F 86% 30.02 in 2.5 mi North 9.2 mph - N/A   Overcast
6:56 AM 26.6 °F 16.2 °F 23.0 °F 86% 30.02 in 2.0 mi North 11.5 mph - N/A   Overcast
7:16 AM 26.6 °F 15.7 °F 23.0 °F 86% 30.04 in 2.5 mi North 12.7 mph - N/A   Overcast
7:36 AM 26.6 °F 17.5 °F 23.0 °F 86% 30.04 in 2.5 mi NNE 9.2 mph 16.1 mph N/A   Overcast
7:56 AM 26.6 °F 16.8 °F 23.0 °F 86% 30.05 in 2.5 mi North 10.4 mph - N/A   Overcast
8:16 AM 26.6 °F 16.8 °F 23.0 °F 86% 30.05 in 3.0 mi North 10.4 mph - N/A   Overcast
8:36 AM 26.6 °F 15.7 °F 23.0 °F 86% 30.08 in 2.0 mi North 12.7 mph - N/A   Overcast
8:56 AM 26.6 °F 15.7 °F 23.0 °F 86% 30.09 in 2.0 mi North 12.7 mph - N/A   Overcast
9:16 AM 26.6 °F 18.2 °F 23.0 °F 86% 30.10 in 1.8 mi North 8.1 mph - N/A   Overcast
9:36 AM 26.6 °F 15.7 °F 23.0 °F 86% 30.11 in 1.8 mi North 12.7 mph - N/A   Overcast
9:56 AM 26.6 °F 16.2 °F 23.0 °F 86% 30.11 in 2.0 mi North 11.5 mph - N/A   Overcast
10:16 AM 26.6 °F 17.5 °F 23.0 °F 86% 30.12 in 2.5 mi NNW 9.2 mph - N/A   Overcast
10:36 AM 26.6 °F 15.7 °F 23.0 °F 86% 30.13 in 2.5 mi North 12.7 mph - N/A   Overcast
10:56 AM 26.6 °F 18.2 °F 23.0 °F 86% 30.13 in 3.0 mi North 8.1 mph - N/A   Overcast
11:16 AM 26.6 °F 17.5 °F 23.0 °F 86% 30.13 in 3.0 mi North 9.2 mph - N/A   Overcast
11:36 AM 28.4 °F 19.1 °F 23.0 °F 80% 30.13 in 3.0 mi North 10.4 mph - N/A   Overcast
11:56 AM 28.4 °F 20.4 °F 23.0 °F 80% 30.12 in 4.0 mi North 8.1 mph - N/A   Haze
12:16 PM 28.4 °F 19.7 °F 23.0 °F 80% 30.13 in 4.0 mi North 9.2 mph - N/A   Haze
12:36 PM 28.4 °F 19.7 °F 23.0 °F 80% 30.12 in 4.0 mi North 9.2 mph - N/A   Haze
12:56 PM 28.4 °F 19.1 °F 23.0 °F 80% 30.12 in 4.0 mi North 10.4 mph - N/A   Haze
1:16 PM 28.4 °F 18.5 °F 23.0 °F 80% 30.12 in 5.0 mi North 11.5 mph - N/A   Haze
1:36 PM 28.4 °F 18.5 °F 23.0 °F 80% 30.12 in 5.0 mi North 11.5 mph - N/A   Haze
1:56 PM 28.4 °F 18.5 °F 23.0 °F 80% 30.12 in 5.0 mi North 11.5 mph 16.1 mph N/A   Haze
2:16 PM 28.4 °F 18.5 °F 23.0 °F 80% 30.12 in 5.0 mi NNW 11.5 mph - N/A   Haze
2:36 PM 28.4 °F 18.5 °F 23.0 °F 80% 30.12 in 5.0 mi North 11.5 mph - N/A   Haze
2:56 PM 28.4 °F 19.7 °F 23.0 °F 80% 30.12 in 5.0 mi North 9.2 mph - N/A   Overcast
3:16 PM 28.4 °F 19.7 °F 23.0 °F 80% 30.13 in 5.0 mi North 9.2 mph - N/A   Haze
3:36 PM 28.4 °F 19.1 °F 23.0 °F 80% 30.14 in 5.0 mi North 10.4 mph - N/A   Haze
3:56 PM 28.4 °F 18.5 °F 23.0 °F 80% 30.15 in 5.0 mi North 11.5 mph - N/A   Haze
4:16 PM 28.4 °F 19.1 °F 23.0 °F 80% 30.15 in 5.0 mi North 10.4 mph - N/A   Haze
4:36 PM 28.4 °F 19.7 °F 23.0 °F 80% 30.16 in 5.0 mi North 9.2 mph - N/A   Haze
4:56 PM 28.4 °F 18.5 °F 23.0 °F 80% 30.16 in 5.0 mi North 11.5 mph - N/A   Haze
5:16 PM 26.6 °F 18.2 °F 23.0 °F 86% 30.17 in 5.0 mi North 8.1 mph - N/A   Overcast
5:36 PM 26.6 °F 19.1 °F 23.0 °F 86% 30.17 in 7.0 mi NNE 6.9 mph - N/A   Overcast
5:56 PM 26.6 °F 18.2 °F 23.0 °F 86% 30.19 in 7.0 mi NNE 8.1 mph - N/A   Overcast
6:16 PM 26.6 °F 17.5 °F 23.0 °F 86% 30.20 in 7.0 mi NNE 9.2 mph - N/A   Overcast
6:36 PM 26.6 °F 18.2 °F 21.2 °F 80% 30.20 in 7.0 mi NNE 8.1 mph - N/A   Overcast
6:56 PM 26.6 °F 16.8 °F 21.2 °F 80% 30.20 in 7.0 mi NNE 10.4 mph - N/A   Overcast
7:17 PM 26.6 °F 18.2 °F 21.2 °F 80% 30.21 in 7.0 mi NNE 8.1 mph - N/A   Overcast
7:36 PM 26.6 °F 17.5 °F 21.2 °F 80% 30.22 in 7.0 mi North 9.2 mph - N/A   Overcast
7:56 PM 26.6 °F 20.0 °F 21.2 °F 80% 30.22 in 7.0 mi NNE 5.8 mph - N/A   Overcast
8:16 PM 24.8 °F 15.3 °F 21.2 °F 86% 30.23 in 7.0 mi North 9.2 mph - N/A   Overcast
8:36 PM 24.8 °F 15.3 °F 21.2 °F 86% 30.23 in 7.0 mi NNE 9.2 mph - N/A   Overcast
8:56 PM 24.8 °F 17.9 °F 21.2 °F 86% 30.23 in 7.0 mi NNE 5.8 mph - N/A   Overcast
9:16 PM 24.8 °F 16.9 °F 21.2 °F 86% 30.24 in 7.0 mi NNE 6.9 mph - N/A   Overcast
9:36 PM 24.8 °F 16.1 °F 21.2 °F 86% 30.24 in 7.0 mi North 8.1 mph - N/A   Overcast
9:56 PM 24.8 °F 16.9 °F 21.2 °F 86% 30.24 in 7.0 mi NNE 6.9 mph - N/A   Overcast
10:16 PM 23.0 °F 15.8 °F 21.2 °F 93% 30.24 in 7.0 mi NNE 5.8 mph - N/A   Overcast
10:37 PM 23.0 °F 14.7 °F 21.2 °F 93% 30.24 in 7.0 mi NNE 6.9 mph - N/A   Overcast
10:56 PM 23.0 °F 15.8 °F 21.2 °F 93% 30.24 in 7.0 mi NNE 5.8 mph - N/A   Overcast
11:16 PM 23.0 °F 13.9 °F 21.2 °F 93% 30.24 in 10.0 mi ENE 8.1 mph - N/A   Overcast
11:37 PM 23.0 °F 15.8 °F 21.2 °F 93% 30.24 in 10.0 mi NNE 5.8 mph - N/A   Overcast
11:56 PM 23.0 °F 13.9 °F 21.2 °F 93% 30.26 in 10.0 mi NNE 8.1 mph - N/A   Overcast